TimeEDT,TemperatureF,Dew PointF,Humidity,Sea Level PressureIn,VisibilityMPH,Wind Direction,Wind SpeedMPH,Gust SpeedMPH,PrecipitationIn,Events,Conditions,WindDirDegrees,DateUTC
12:53 AM,75.9,64.0,67,30.04,10.0,SW,8.1,-,N/A,,Partly Cloudy,230,2013-06-23 04:53:00
1:53 AM,75.0,64.9,71,30.05,10.0,SW,6.9,-,N/A,,Scattered Clouds,220,2013-06-23 05:53:00
2:53 AM,73.9,64.9,73,30.04,10.0,SW,4.6,-,N/A,,Clear,220,2013-06-23 06:53:00
3:53 AM,72.0,64.9,78,30.04,10.0,Calm,Calm,-,N/A,,Scattered Clouds,0,2013-06-23 07:53:00
4:53 AM,69.1,64.0,84,30.05,10.0,South,3.5,-,N/A,,Clear,180,2013-06-23 08:53:00
5:53 AM,69.1,64.0,84,30.06,9.0,Calm,Calm,-,N/A,,Clear,0,2013-06-23 09:53:00
6:53 AM,70.0,64.9,84,30.09,7.0,SSW,4.6,-,N/A,,Clear,200,2013-06-23 10:53:00
7:53 AM,73.0,64.9,76,30.09,9.0,SW,8.1,-,N/A,,Mostly Cloudy,220,2013-06-23 11:53:00
8:53 AM,77.0,66.0,69,30.10,10.0,WSW,4.6,-,N/A,,Partly Cloudy,250,2013-06-23 12:53:00
9:53 AM,81.0,66.0,60,30.09,10.0,SSW,8.1,-,N/A,,Clear,200,2013-06-23 13:53:00
10:53 AM,84.0,66.9,56,30.06,10.0,SSW,12.7,-,N/A,,Clear,210,2013-06-23 14:53:00
11:53 AM,87.1,66.0,49,30.05,10.0,SSW,15.0,20.7,N/A,,Clear,200,2013-06-23 15:53:00
12:53 PM,89.1,64.9,45,30.04,10.0,South,12.7,-,N/A,,Clear,190,2013-06-23 16:53:00
1:53 PM,91.0,63.0,39,30.04,10.0,South,12.7,23.0,N/A,,Partly Cloudy,190,2013-06-23 17:53:00
2:53 PM,91.0,63.0,39,30.02,10.0,SW,17.3,23.0,N/A,,Partly Cloudy,220,2013-06-23 18:53:00
3:53 PM,91.0,62.1,38,30.02,10.0,SW,16.1,24.2,N/A,,Partly Cloudy,220,2013-06-23 19:53:00
4:53 PM,88.0,62.1,42,30.00,10.0,SSW,16.1,-,N/A,Thunderstorm,Mostly Cloudy,210,2013-06-23 20:53:00
5:18 PM,78.8,60.8,54,30.04,7.0,WNW,16.1,41.4,N/A,Thunderstorm,Thunderstorm,300,2013-06-23 21:18:00
5:28 PM,75.2,62.6,65,30.04,10.0,NW,9.2,-,N/A,Thunderstorm,Thunderstorm,310,2013-06-23 21:28:00
5:53 PM,82.0,62.1,51,30.00,10.0,Calm,Calm,-,N/A,,Clear,0,2013-06-23 21:53:00
6:53 PM,87.1,66.0,49,29.99,10.0,SW,11.5,-,N/A,,Clear,220,2013-06-23 22:53:00
7:53 PM,84.0,64.0,51,30.00,10.0,SW,6.9,-,N/A,,Scattered Clouds,230,2013-06-23 23:53:00
8:53 PM,77.0,63.0,62,30.05,10.0,SW,19.6,27.6,N/A,Thunderstorm,Partly Cloudy,220,2013-06-24 00:53:00
9:08 PM,75.2,62.6,65,30.09,10.0,SSW,17.3,33.4,N/A,Thunderstorm,Scattered Clouds,200,2013-06-24 01:08:00
9:46 PM,73.4,62.6,69,30.08,10.0,South,5.8,-,N/A,,Partly Cloudy,180,2013-06-24 01:46:00
9:53 PM,73.9,64.0,71,30.05,10.0,SSE,4.6,-,N/A,,Mostly Cloudy,160,2013-06-24 01:53:00
10:53 PM,72.0,63.0,73,30.05,10.0,SSW,11.5,-,0.00,,Partly Cloudy,200,2013-06-24 02:53:00
11:53 PM,71.1,64.9,81,30.03,10.0,Calm,Calm,-,N/A,,Clear,0,2013-06-24 03:53:00